Hourly Data Report for June 07, 2021

VINELAND STATION RCS
ONTARIO
Current Station Operator: ECCC - MSC

43°11'00.000" N
79°24'00.000" W
79.20 m
6139148
71171
XVN

Download Data

Hourly Data (June 2021)
Hourly Data Report for June 7, 2021
TIME
LST
Temp Definition
°C
Dew Point Definition
°C
Rel Hum Definition
%
Precip. Amount Definition
mm

Wind Dir Definition
10's deg

Wind Spd Definition
km/h
Visibility Definition
km
Stn Press Definition
kPa
Hmdx Definition


Wind Chill Definition


Weather Definition


00:00 20.7 13.6 64 0.0 19 12   100.53     LegendNANA
01:00 21.1 13.6 62 0.0 20 11   100.51     LegendNANA
02:00 21.3 13.9 63 0.0 20 12   100.49 25   LegendNANA
03:00 21.7 15.5 68 0.0 20 15   100.51 26   LegendNANA
04:00 22.0 16.2 69 0.0 21 14   100.53 27   LegendNANA
05:00 22.2 16.5 70 0.0 20 13   100.54 27   LegendNANA
06:00 22.4 17.2 72 0.0 20 17   100.60 28   LegendNANA
07:00 23.6 18.1 72 0.0 21 18   100.62 30   LegendNANA
08:00 24.4 18.9 71 0.0 21 17   100.62 31   LegendNANA
09:00 27.5 19.7 62 0.0 22 16   100.60 35   LegendNANA
10:00 29.0 20.3 59 0.0 21 17   100.60 37   LegendNANA
11:00 29.4 20.3 58 0.0 21 15   100.60 37   LegendNANA
12:00 30.0 20.3 56 0.0 21 19   100.60 38   LegendNANA
13:00 29.4 19.8 57 0.0 21 24   100.58 37   LegendNANA
14:00 29.0 19.4 56 0.0 21 25   100.57 36   LegendNANA
15:00 29.2 18.9 54 0.0 21 27   100.51 36   LegendNANA
16:00 29.2 18.2 51 0.0 22 25   100.48 35   LegendNANA
17:00 29.1 18.8 54 0.0 22 20   100.46 36   LegendNANA
18:00 28.3 18.3 55 0.0 24 16   100.48 35   LegendNANA
19:00 27.4 17.9 56 0.0 23 11   100.50 33   LegendNANA
20:00 26.0 18.1 62 0.0 21 7   100.51 32   LegendNANA
21:00 23.8 18.0 70 0.0 19 8   100.56 30   LegendNANA
22:00 23.0 18.2 75 0.0 20 7   100.58 29   LegendNANA
23:00 22.4 18.1 77 0.0 25 7   100.59 28   LegendNANA

Notes on Data Quality.

Legend

  • E = Estimated
  • M = Missing
  • NA = Not Available*
  • [empty] = Indicates an unobserved value
Date modified: